Date,TemperatureHighF,TemperatureAvgF,TemperatureLowF,DewpointHighF,DewpointAvgF,DewpointLowF,HumidityHigh,HumidityAvg,HumidityLow,PressureMaxIn,PressureMinIn,WindSpeedMaxMPH,WindSpeedAvgMPH,GustSpeedMaxMPH,PrecipitationSumIn
2013-2-1,17,10,2,12,1,-5,85,71,60,30.50,30.28,24,8,25,0.00
2013-2-2,26,19,11,22,15,5,95,87,75,30.34,30.13,20,7,20,0.00
2013-2-3,24,17,10,17,10,3,87,77,59,30.21,30.10,23,6,24,0.00
2013-2-4,28,25,21,24,21,17,94,88,78,30.19,29.98,15,4,16,0.00
2013-2-5,32,27,17,28,22,14,94,87,70,30.22,29.94,28,7,28,0.04
2013-2-6,37,32,23,27,22,16,80,69,58,30.40,30.22,18,6,18,0.03
2013-2-7,45,36,31,36,31,25,99,85,70,30.28,29.98,21,5,21,0.39
2013-2-8,34,29,28,30,26,24,99,90,79,30.52,30.17,34,13,35,0.00
2013-2-9,38,32,29,27,25,21,88,77,67,30.54,30.26,22,7,22,0.00
2013-2-10,51,41,33,48,36,23,94,84,66,30.26,29.70,34,13,35,0.27
2013-2-11,50,36,30,43,25,20,78,67,63,30.18,29.72,39,14,42,0.00
2013-2-12,31,28,22,23,20,18,90,77,70,30.26,30.09,25,6,25,0.00
2013-2-13,46,34,23,32,26,19,93,78,57,30.09,29.87,22,7,22,0.00
2013-2-14,43,38,33,34,28,20,83,71,54,30.12,29.83,27,10,28,0.00
2013-2-15,33,28,24,27,18,9,94,69,46,30.32,30.12,23,7,25,0.00
2013-2-16,24,18,14,13,6,1,80,61,47,30.31,30.25,26,9,26,0.00
2013-2-17,30,21,11,12,5,-1,73,53,33,30.36,30.20,16,6,16,0.00
2013-2-18,53,41,26,45,30,12,92,69,56,30.20,29.60,42,16,42,0.36
2013-2-19,34,18,13,31,10,4,91,75,67,30.29,29.70,36,14,36,0.00
2013-2-20,26,18,10,19,8,1,78,70,53,30.48,30.30,18,8,19,0.00
2013-2-21,28,26,24,22,19,16,91,77,73,30.50,30.14,27,6,27,0.00
2013-2-22,34,29,23,33,25,20,97,90,75,30.15,29.98,21,8,22,0.08
2013-2-23,29,27,24,23,19,16,83,76,66,30.11,30.07,20,6,21,0.00
2013-2-24,40,28,18,22,18,14,89,72,49,30.30,30.11,10,3,10,0.00
2013-2-25,43,34,23,27,24,18,88,71,52,30.33,30.10,14,4,14,0.00
2013-2-26,35,34,33,33,28,22,98,84,62,30.11,29.62,27,7,27,0.44
2013-2-27,35,34,33,35,33,32,100,99,98,29.80,29.62,26,5,26,0.45
2013-2-28,34,33,30,34,31,26,100,95,82,30.17,29.80,36,14,36,0.15